Location: Unspecified
(35.7250°N, 0.0000°E)
Time: 14:01:53
(UTC+00:00)

Vanguard 2 - Pass Details

Date: 17 June 2019
Orbit: 553 x 2938 km, 32.9° (Epoch: 22 July)

Event Time Altitude Azimuth Distance (km) Brightness Sun altitude
Rises 08:29:12 0° 224° (SW) 3,279 10.5 42.9°
Reaches altitude 10° 08:31:25 10° 216° (SW) 2,555 10.0 43.4°
Maximum altitude 08:37:05 38° 148° (SSE) 1,738 10.2 44.5°
Drops below altitude 10° 08:46:03 10° 85° (E) 4,060 12.2 46.3°
Sets 08:50:31 0° 79° (E) 5,475 12.6 47.2°
